Cordova, SC

11:46 PM EST on February 07, 2016 (GMT -0500)
Orangeburg Municipal

Weather History for KOGB - November, 2011

Change the Weather History Date:

Friday, November 4, 2011

  Actual Average Record
Temperature  
Mean Temperature 55 °F 59 °F  
Max Temperature 63 °F 72 °F 87 °F (1961)
Min Temperature 47 °F 47 °F 24 °F (1954)
Degree Days  
Heating Degree Days 10 7  
Month to date heating degree days 48 25  
Since 1 July heating degree days 174 115  
Cooling Degree Days 0 1  
Month to date cooling degree days 0 4  
Year to date cooling degree days 2470 2091  
Growing Degree Days 6 (Base 50)    
Moisture  
Dew Point 51 °F    
Average Humidity 83    
Maximum Humidity 93    
Minimum Humidity 64    
Precipitation  
Precipitation 0.03 in 0.08 in 1.61 in (1992)
Month to date precipitation 0.07 0.30  
Year to date precipitation 34.14 40.79  
Sea Level Pressure  
Sea Level Pressure 29.83 in    
Wind  
Wind Speed 12 mph (WNW)    
Max Wind Speed 25 mph    
Max Gust Speed 35 mph    
Visibility 10 miles    
Events Rain    
T = Trace of Precipitation, MM = Missing Value Source: NWS Daily Summary

Daily Weather History Graph

Daily Weather History Graph

Search for Another Location

Airport or City:

Trip Planner

Search our weather history database for the weather conditions in past years. The results will help you decide how hot, cold, wet, or windy it might be!

Date:

Astronomy

Nov. 04, 2011 Rise Set
Actual Time 7:44 AM EDT 6:28 PM EDT
Civil Twilight 7:18 AM EDT 6:54 PM EDT
Nautical Twilight 6:49 AM EDT 7:24 PM EDT
Astronomical Twilight 6:20 AM EDT 7:53 PM EDT
Moon 3:05 PM EDT (11/4) 2:11 AM EDT (11/4)
Length of Visible Light 11h 36m
Length of Day
10h 44m
Waxing Gibbous, 69% of the Moon is Illuminated
Nov 4
Waxing Gibbous
Nov 10
Full
Nov 18
Last Quarter
Nov 25
New
Dec 2
First Quarter

Hourly Weather History & Observations

Time (EDT) Temp. Dew Point Humidity Pressure Visibility Wind Dir Wind Speed Gust Speed Precip Events Conditions
1:20 AM 62.6 °F 62.6 °F 100% 29.81 in 4.0 mi South 12.7 mph 18.4 mph 0.03 in Rain Light Rain
1:33 AM 62.6 °F 60.8 °F 94% 29.80 in 7.0 mi SSW 13.8 mph 19.6 mph 0.03 in Rain Light Rain
1:43 AM 62.6 °F 60.8 °F 94% 29.80 in 9.0 mi SSW 10.4 mph 18.4 mph 0.03 in Rain Light Rain
1:53 AM 63.0 °F 61.0 °F 93% 29.80 in 10.0 mi SW 11.5 mph 18.4 mph 0.04 in Rain Light Rain
2:14 AM 62.6 °F 60.8 °F 94% 29.80 in 8.0 mi SW 9.2 mph - 0.00 in Rain Light Rain
2:24 AM 62.6 °F 60.8 °F 94% 29.79 in 10.0 mi SSW 9.2 mph - 0.00 in Rain Light Rain
2:40 AM 62.6 °F 60.8 °F 94% 29.78 in 10.0 mi SW 10.4 mph - 0.00 in   Overcast
2:53 AM 63.0 °F 61.0 °F 93% 29.78 in 10.0 mi SW 9.2 mph - 0.00 in   Overcast
4:07 AM 62.6 °F 60.8 °F 94% 29.75 in 10.0 mi SW 5.8 mph - N/A   Overcast
4:18 AM 60.8 °F 60.8 °F 100% 29.75 in 10.0 mi SW 5.8 mph - N/A   Overcast
4:53 AM 60.1 °F 57.9 °F 93% 29.74 in 10.0 mi WSW 9.2 mph - N/A   Overcast
5:09 AM 60.8 °F 57.2 °F 88% 29.75 in 10.0 mi WSW 17.3 mph 21.9 mph N/A   Overcast
5:53 AM 53.1 °F 48.9 °F 86% 29.77 in 10.0 mi West 15.0 mph 23.0 mph N/A   Overcast
6:10 AM 51.8 °F 46.4 °F 82% 29.78 in 10.0 mi West 16.1 mph 24.2 mph N/A   Overcast
6:53 AM 48.0 °F 44.1 °F 86% 29.79 in 10.0 mi West 10.4 mph - N/A   Mostly Cloudy
7:15 AM 48.2 °F 44.6 °F 87% 29.78 in 10.0 mi West 9.2 mph - N/A   Scattered Clouds
7:45 AM 48.2 °F 44.6 °F 87% 29.78 in 10.0 mi WSW 10.4 mph - N/A   Mostly Cloudy
7:53 AM 48.0 °F 44.1 °F 86% 29.78 in 10.0 mi WSW 10.4 mph - N/A   Mostly Cloudy
8:53 AM 48.0 °F 43.0 °F 83% 29.79 in 10.0 mi West 12.7 mph - N/A   Overcast
9:53 AM 48.9 °F 43.0 °F 80% 29.80 in 10.0 mi West 12.7 mph - N/A   Overcast
10:53 AM 50.0 °F 43.0 °F 77% 29.80 in 10.0 mi West 12.7 mph 18.4 mph N/A   Overcast
11:18 AM 50.0 °F 44.6 °F 82% 29.80 in 10.0 mi WNW 12.7 mph - N/A   Overcast
11:53 AM 52.0 °F 45.0 °F 77% 29.80 in 10.0 mi NW 8.1 mph - N/A   Overcast
12:53 PM 53.1 °F 48.0 °F 83% 29.81 in 10.0 mi NW 9.2 mph 18.4 mph N/A   Overcast
1:53 PM 57.0 °F 52.0 °F 83% 29.81 in 10.0 mi North 12.7 mph 20.7 mph 0.00 in Rain Light Rain
2:02 PM 57.2 °F 51.8 °F 82% 29.80 in 10.0 mi North 9.2 mph 27.6 mph 0.00 in Rain Light Rain
2:53 PM 59.0 °F 51.1 °F 75% 29.79 in 10.0 mi North 11.5 mph 18.4 mph 0.00 in   Overcast
3:53 PM 60.1 °F 48.9 °F 67% 29.81 in 10.0 mi North 11.5 mph 26.5 mph N/A   Overcast
4:46 PM 59.0 °F 48.2 °F 67% 29.85 in 10.0 mi North 17.3 mph 31.1 mph N/A   Overcast
4:53 PM 59.0 °F 48.0 °F 67% 29.86 in 10.0 mi NNE 19.6 mph 29.9 mph N/A   Overcast
5:53 PM 57.9 °F 46.9 °F 67% 29.89 in 10.0 mi North 20.7 mph 32.2 mph N/A   Overcast
6:53 PM 57.9 °F 46.9 °F 67% 29.93 in 10.0 mi North 13.8 mph 21.9 mph N/A   Overcast
7:53 PM 55.9 °F 46.0 °F 69% 29.97 in 10.0 mi NNE 12.7 mph 24.2 mph N/A   Mostly Cloudy
8:53 PM 55.0 °F 46.0 °F 72% 30.01 in 10.0 mi North 11.5 mph 17.3 mph N/A   Mostly Cloudy
9:53 PM 54.0 °F 46.0 °F 75% 30.01 in 10.0 mi North 9.2 mph - N/A   Partly Cloudy
10:53 PM 55.0 °F 45.0 °F 69% 30.03 in 10.0 mi NNE 11.5 mph 21.9 mph N/A   Clear
11:53 PM 54.0 °F 45.0 °F 72% 30.05 in 10.0 mi NNE 9.2 mph 19.6 mph N/A   Clear